Home > Weather > Bayreuth > Past weeks

Flag for Germany Past Weather in Bayreuth, Bavaria, Germany — Yesterday and Last 2 Weeks

Now
73 °F

Passing clouds.


Feels Like: 74 °F
Forecast: 60 / 81 °F
Wind: No wind

Location: Grafenwoehr

Current Time: Jul 23, 2016 at 7:08:28 PM

Latest Report: Jul 23, 2016 at 5:58 PM


Visibility: N/A

Pressure: 30.01 "Hg

Humidity: 78%

Dew Point: 66 °F

Location of BayreuthLocation

Past Weather in Bayreuth — Graph

°F

Bayreuth Temperature Yesterday

Maximum temperature yesterday: 82 °F (at 4:58 PM)
Minimum temperature yesterday: 57 °F (at 1:58 AM)
Average temperature yesterday: 69 °F

High & Low Weather Summary for the Past Weeks

 TemperatureHumidityPressure
High88 °F (Jul 11, 2:58 PM)100% (Jul 10, 2:58 AM)30.31 "Hg (Jul 10, 2:58 AM)
Low46 °F (Jul 15, 12:58 AM)30% (Jul 8, 6:58 PM)29.83 "Hg (Jul 11, 1:58 AM)
Average65 °F74%30.03 "Hg
* Reported Jul 8 5:58 PM — Jul 23 5:58 PM, Bayreuth, Weather by CustomWeather, © 2016

Note: Actual official high and low records may vary slightly from our data, if they occured in-between our weather recording intervals... More about our weather records

Advertising

Bayreuth Weather History for the Previous 24 Hours

Scroll right to see more
 ConditionsComfort  
Time TempWeatherWind HumidityBarometerVisibility
5:58 PM
Sat, Jul 23
74 °FPassing clouds.No wind79%30.01 "HgN/A
4:58 PM73 °FScattered clouds.2 mph81%30.01 "HgN/A
3:58 PM75 °FBroken clouds.6 mph75%30.01 "HgN/A
2:58 PM74 °FPartly sunny.1 mph78%30.01 "HgN/A
1:58 PM72 °FBroken clouds.5 mph88%30.01 "HgN/A
1:00 PM70 °FBroken clouds.3 mph88%30.04 "HgN/A
11:58 AM71 °FMild.N/A85%30.01 "HgN/A
10:58 AM67 °FMostly cloudy.No wind96%30.01 "HgN/A
9:58 AM66 °FOvercast.1 mph100%30.01 "HgN/A
9:03 AM66 °FHeavy rain. Fog.2 mph94%30.03 "Hg1 mi
9:02 AM66 °FHeavy rain. Fog.2 mph94%30.03 "Hg1 mi
6:58 AM61 °FPartly sunny.No wind94%29.97 "HgN/A
5:58 AM60 °FFog.No wind96%29.96 "Hg5 mi
4:58 AM61 °FFog.1 mph94%29.96 "Hg6 mi
3:58 AM61 °FPassing clouds.No wind94%29.96 "HgN/A
2:58 AM63 °FPassing clouds.No wind94%29.96 "HgN/A
1:58 AM63 °FPassing clouds.No wind94%29.97 "HgN/A
12:58 AM64 °FClear.No wind88%29.96 "HgN/A
11:58 PM
Fri, Jul 22
66 °FPassing clouds.No wind88%29.96 "HgN/A
10:58 PM68 °FClear.No wind83%29.96 "HgN/A
9:58 PM70 °FSunny.No wind78%29.96 "HgN/A
8:58 PM73 °FSunny.No wind69%29.96 "HgN/A
7:58 PM77 °FSunny.No wind61%29.94 "HgN/A
Weather by CustomWeather, © 2016

See weather overviewHow to use our weather pages